Location: St. Louis
(38.6270°N, 90.1994°W)
Time: 12:20:22
(UTC-06:00)

Altair - Pass Details

Date: 30 November 2021
Orbit: 1501 x 1683 km, 47.2° (Epoch: 25 January)

Event Time Altitude Azimuth Distance (km) Brightness Sun altitude
Rises 01:37:46 0° 284° (WNW) 4,639 - -61.3°
Reaches altitude 10° 01:43:52 10° 254° (WSW) 3,672 - -60.2°
Maximum altitude 01:46:20 11° 238° (WSW) 3,580 - -59.8°
Drops below altitude 10° 01:48:48 10° 222° (SW) 3,693 - -59.4°
Sets 01:55:04 0° 191° (SSW) 4,713 - -58.3°
